Theta_e
277 277 277 277 277 277 278 278 278 279 280 281 282 283 283 283 285 286 287 290 291 311 313 312 310 310 306 304 304 304 304 303 299 291 294 294 296 295 295 296 295 295 295
277 276 276 276 276 275 276 276 277 277 278 278 280 281 282 282 283 285 285 287 289 295 309 308 307 306 304 303 302 301 302 303 298 291 290 290 293 295 294 294 293 294 293
276 275 275 275 275 275 275 276 276 275 275 276 277 278 279 281 282 283 285 285 286 292 301 304 304 302 301 300 300 300 301 301 300 291 289 290 289 291 290 291 291 290 292
275 274 274 274 274 274 275 275 275 275 274 274 274 275 276 279 281 282 284 284 285 287 293 299 301 300 300 298 298 298 298 298 298 294 288 287 288 289 290 289 287 287 287
274 274 273 274 274 274 274 274 274 275 274 274 273 274 275 277 280 282 283 282 283 284 286 291 297 296 294 297 297 296 296 295 294 294 289 286 285 287 288 287 286 286 285
273 273 274 273 273 273 273 273 273 273 273 273 272 272 273 275 280 283 283 281 282 282 282 284 288 290 291 294 294 295 296 294 292 292 292 289 286 287 289 288 286 284 284
273 274 273 273 272 272 272 271 271 271 272 271 270 271 270 273 279 281 282 280 280 280 281 282 283 285 285 290 293 294 293 294 295 294 290 287 286 287 289 287 286 285 284
273 273 272 272 270 270 270 270 269 270 269 268 268 268 269 272 278 279 281 279 278 279 280 281 281 282 284 285 286 286 287 288 290 292 292 290 290 289 289 288 288 284 278
272 272 271 270 269 269 268 267 268 267 266 266 268 267 268 270 277 278 279 277 276 277 278 280 280 281 284 286 285 285 286 286 289 292 292 293 293 293 290 287 286 285 279
270 270 269 268 268 267 267 267 268 266 266 266 266 266 268 269 274 276 277 275 274 275 276 277 279 279 283 286 284 285 284 285 285 285 286 290 291 290 290 289 287 286 282
268 268 268 267 267 266 267 267 266 265 265 263 264 265 266 268 269 275 277 274 274 274 274 274 276 280 282 284 287 285 285 287 287 285 283 286 286 287 287 286 287 288 285
266 265 265 264 265 266 265 265 264 264 263 262 263 264 266 266 270 272 275 275 276 273 273 274 276 279 281 283 285 287 289 289 285 285 285 284 283 285 285 284 283 282 282
262 260 259 263 264 265 264 262 262 263 262 262 263 262 264 266 266 271 272 274 274 273 273 275 277 278 279 281 282 283 284 285 285 285 284 285 284 284 280 278 277 277 276
258 258 260 260 261 262 264 264 263 261 260 262 262 263 263 264 265 267 270 271 273 273 274 273 274 275 277 278 277 278 279 284 285 285 285 284 282 280 279 278 277 278 276
258 258 259 261 260 262 263 263 264 264 265 264 265 265 264 263 265 271 272 271 271 273 272 270 269 271 271 273 273 273 275 276 279 285 285 281 281 281 280 279 279 279 277
260 261 261 260 260 261 261 261 266 268 269 270 271 269 268 270 271 272 273 273 274 274 266 264 266 268 269 269 269 270 271 271 272 274 284 283 280 280 279 279 280 280 277
258 260 259 260 260 260 260 259 258 262 266 267 268 269 269 270 271 271 272 272 271 268 261 262 264 265 265 266 267 267 267 269 270 271 273 282 281 280 279 278 279 280 278
253 255 256 257 257 257 258 258 258 257 256 258 263 265 268 269 269 270 270 268 258 261 259 260 261 262 263 264 264 265 266 266 268 270 272 274 281 281 278 278 279 280 278
253 254 255 256 255 255 255 255 255 255 256 256 258 261 262 265 267 268 268 256 256 256 260 259 260 261 261 262 262 263 264 265 266 267 269 272 274 281 279 279 279 280 280
250 253 253 252 252 253 254 255 255 253 255 255 256 256 257 254 254 256 255 255 255 253 257 259 259 259 260 260 261 261 262 263 265 266 267 269 270 272 280 280 280 279 280
252 252 254 252 252 252 254 254 254 255 256 256 256 257 265 263 258 254 254 256 255 254 253 255 258 259 259 259 260 260 260 261 263 264 266 266 267 268 269 280 280 280 280
251 251 251 252 253 254 254 254 256 256 256 256 256 257 264 259 255 256 256 254 255 254 254 251 254 257 258 258 258 258 258 259 261 262 263 264 264 266 268 270 280 280 280
251 251 252 253 254 254 255 254 255 256 256 256 256 257 257 256 254 255 256 256 254 254 254 252 249 255 255 258 257 257 258 258 260 261 261 262 262 264 265 267 269 279 279
255 254 253 250 249 251 253 255 256 256 256 256 256 256 256 256 256 255 256 256 255 254 253 253 253 252 252 254 257 257 258 258 260 260 260 260 261 262 263 264 267 269 278
251 251 249 249 249 251 253 254 255 256 256 256 256 256 256 256 256 256 256 254 254 254 254 253 252 253 252 251 253 255 256 258 258 258 258 257 258 260 261 263 265 269 272
253 251 250 249 252 252 253 254 255 256 255 256 255 255 256 256 256 256 257 254 254 254 254 252 253 252 251 251 250 254 256 259 258 258 257 257 257 259 260 263 265 267 269
Wind_Speed
6 6 6 6 6 7 9 10 12 13 16 17 17 18 19 20 20 20 22 21 17 18 15 15 15 14 11 11 9 10 10 7 6 1 3 3 6 7 6 6 7 7 8
5 6 6 6 6 7 9 10 11 13 13 16 16 17 18 19 20 21 24 22 17 23 14 14 15 9 14 12 11 14 12 10 5 7 3 3 4 8 9 10 7 5 5
4 6 6 6 7 8 9 10 11 12 13 13 16 17 17 18 18 22 22 21 18 20 15 10 12 12 12 10 10 11 10 9 8 5 4 3 2 3 4 4 5 5 5
4 6 6 6 6 7 9 9 11 11 13 13 14 15 16 17 16 19 22 22 20 17 19 10 8 11 13 11 11 11 9 10 9 7 2 3 3 3 4 6 4 1 3
4 5 6 5 6 8 9 11 11 11 12 13 14 14 15 15 13 21 21 21 20 20 18 16 11 6 8 14 10 10 11 9 8 9 6 3 3 4 10 5 3 1 2
5 6 5 5 6 8 9 11 12 12 12 13 15 14 15 11 27 31 27 18 20 18 16 17 16 12 7 7 10 15 14 13 12 9 10 8 5 5 5 8 5 3 3
5 5 4 4 5 7 8 10 11 12 12 13 13 14 15 14 27 28 29 14 16 18 17 15 15 12 16 10 9 11 12 11 13 11 11 5 6 6 10 8 5 4 4
6 4 3 3 6 7 8 8 9 10 11 12 12 13 14 11 25 27 28 14 12 13 16 14 14 15 17 15 8 4 2 5 6 5 7 6 6 9 8 6 7 5 3
4 3 1 3 6 7 9 9 8 8 9 10 11 13 13 13 22 25 22 13 13 13 13 14 14 15 25 25 7 6 3 1 1 8 7 10 14 19 13 9 7 7 3
4 2 1 3 5 7 8 9 8 7 9 8 11 10 12 13 18 23 19 10 12 11 12 11 19 19 28 25 9 5 3 3 4 2 3 6 9 12 20 12 11 10 4
5 3 1 2 5 7 8 8 8 9 9 7 9 8 9 9 12 23 21 9 10 10 10 9 10 28 30 28 20 6 3 4 0 1 2 3 4 6 6 3 8 8 6
4 1 2 3 6 6 7 8 8 8 8 7 8 8 7 6 16 19 22 21 19 10 11 10 11 27 27 26 16 20 11 6 4 4 4 4 4 5 5 4 4 4 4
3 2 3 5 6 6 6 7 6 5 5 7 7 8 8 8 8 20 23 24 21 12 8 16 24 24 22 14 21 22 13 3 2 2 4 4 4 4 8 6 6 9 11
1 4 4 4 5 4 4 4 5 4 4 6 7 8 8 8 8 9 10 11 16 14 16 10 17 18 17 15 12 13 10 7 3 3 2 2 5 5 5 4 4 4 4
3 4 5 4 4 4 5 4 6 5 7 8 7 7 8 9 9 20 18 12 12 15 16 10 10 9 9 9 9 9 10 11 10 3 3 4 4 5 5 5 4 4 3
3 4 2 2 2 4 5 6 11 15 16 17 19 14 7 17 22 24 23 24 24 24 8 8 8 8 8 8 8 8 8 11 10 10 4 4 5 6 5 5 4 5 4
4 5 3 4 3 4 4 5 7 9 15 16 16 18 19 19 20 21 23 23 19 14 3 6 7 7 7 8 7 7 8 8 11 9 10 3 4 5 7 6 6 6 5
4 5 3 4 4 2 3 5 4 6 8 8 11 16 17 18 19 20 20 13 6 5 2 5 6 6 6 7 6 7 7 8 8 9 9 10 2 5 6 6 7 7 7
2 4 4 4 3 3 3 5 5 4 6 7 8 10 8 17 19 17 17 1 4 3 5 4 5 5 5 6 6 6 6 6 7 7 8 8 10 3 4 5 6 8 8
4 7 5 3 4 4 4 5 5 3 5 6 6 7 7 5 4 4 2 3 4 3 3 6 5 4 5 5 5 5 5 6 6 6 7 7 9 9 3 4 6 7 7
3 3 5 3 4 4 6 6 5 5 6 7 7 7 18 10 5 4 5 7 5 5 4 3 6 6 5 5 5 6 6 6 6 6 6 6 7 9 10 3 5 6 6
3 3 3 4 3 5 6 6 7 6 7 8 8 8 18 6 5 8 7 6 6 5 4 3 4 5 5 6 4 5 5 5 6 6 6 6 6 7 8 8 3 4 6
4 4 5 4 4 6 7 6 7 7 8 8 8 8 7 6 5 7 8 8 5 6 5 4 3 4 3 6 3 4 6 5 5 6 6 6 6 5 7 7 8 2 5
7 6 5 3 2 3 6 8 8 9 9 8 8 8 8 8 8 8 8 8 6 5 5 5 5 6 4 5 6 5 5 4 5 5 5 5 5 6 6 7 7 9 3
5 5 5 3 3 5 7 8 9 8 8 8 8 8 8 8 9 8 7 6 6 6 7 5 5 7 8 8 9 9 8 11 8 7 4 4 6 7 6 5 7 7 8
6 6 5 2 5 6 7 8 9 8 8 8 8 8 8 9 9 9 8 6 6 6 8 5 7 10 10 7 9 10 11 12 10 8 4 4 5 4 5 6 8 6 6
Wind_Direction
323 321 318 318 332 333 331 332 332 331 335 336 341 340 341 341 341 343 333 320 332 262 217 205 206 194 191 188 198 191 195 168 192 171 119 198 187 150 169 168 172 182 193
309 314 311 316 333 332 330 329 331 329 331 332 334 339 343 342 341 346 335 324 340 326 238 211 198 186 195 194 187 188 191 191 165 153 140 171 169 181 184 161 164 166 166
302 309 310 319 331 329 327 330 331 330 330 332 332 335 338 343 340 347 336 334 338 324 309 226 191 189 186 181 186 184 188 179 182 143 141 167 130 165 145 146 149 136 160
292 299 303 318 321 324 325 330 329 330 329 332 332 330 332 333 343 345 347 339 339 340 337 303 252 193 183 175 190 178 182 185 174 164 144 122 137 157 130 151 148 131 127
275 285 292 305 319 323 330 330 329 331 329 328 330 331 331 333 337 346 352 345 340 346 344 344 311 251 195 184 173 174 187 188 172 180 161 135 155 154 170 157 136 132 71
253 269 284 311 326 328 330 329 329 330 329 330 331 331 330 333 332 346 350 348 343 345 349 345 354 336 299 204 186 177 181 180 176 190 185 182 166 143 143 164 121 129 202
230 257 288 323 325 324 322 323 326 327 327 328 326 328 327 327 334 343 346 342 345 345 348 352 4 359 358 331 252 190 183 188 184 182 198 164 146 152 147 150 157 143 211
241 260 305 336 316 316 317 319 318 319 328 323 320 323 319 322 333 340 343 341 342 345 330 357 357 343 358 342 326 290 196 184 172 184 192 161 126 142 158 149 153 118 57
230 256 359 329 308 313 315 314 312 315 318 314 321 319 316 321 332 339 341 341 338 340 338 345 350 337 349 342 318 305 304 270 62 216 162 157 165 167 158 126 149 165 194
186 173 353 297 299 302 302 308 313 315 307 314 311 311 310 310 336 336 339 337 333 337 336 338 340 342 344 335 332 290 270 234 164 164 133 168 164 163 173 178 158 174 135
130 135 243 275 302 297 306 316 311 310 309 301 305 309 305 310 332 334 337 343 326 334 328 332 337 337 337 335 339 304 312 287 358 244 162 116 123 157 172 140 176 174 150
120 151 273 293 295 302 304 303 306 305 308 313 312 319 317 324 327 330 339 332 336 326 330 325 324 333 333 333 333 338 325 283 170 166 139 158 164 163 148 117 100 102 59
116 254 264 268 282 284 293 293 299 302 312 315 321 320 323 325 323 328 324 331 331 332 317 320 328 329 330 332 348 353 336 298 129 161 171 185 182 135 116 90 71 79 71
228 270 270 266 271 261 271 292 290 301 306 312 309 311 312 317 320 314 318 322 325 328 323 326 327 329 336 343 351 355 349 333 258 209 188 117 119 139 142 138 130 165 107
229 248 260 264 277 305 292 287 291 275 280 288 296 296 307 314 308 320 323 326 322 319 333 341 335 337 350 350 356 356 351 352 355 288 210 149 156 155 158 158 137 162 117
264 264 258 274 279 299 298 301 300 306 309 310 309 309 305 304 314 316 323 325 325 335 355 337 334 340 349 354 345 348 355 351 346 337 265 176 168 169 159 163 157 177 139
248 282 293 301 294 293 306 307 306 312 311 311 316 315 316 309 315 321 321 321 348 346 339 324 329 340 341 340 342 347 343 340 333 339 335 229 175 167 163 167 174 175 145
229 264 253 267 269 272 274 286 296 300 308 310 313 314 314 323 321 323 321 349 340 334 304 321 321 325 328 328 334 334 332 339 339 333 334 331 179 160 167 173 177 175 157
244 258 252 242 251 264 275 276 264 266 279 288 303 308 309 317 318 318 325 326 285 294 310 302 299 305 312 320 324 324 329 324 326 335 330 337 338 183 183 177 179 183 163
217 246 263 288 292 288 274 270 273 262 277 280 289 288 301 307 294 282 284 298 301 265 287 298 300 298 303 308 313 314 320 330 335 332 332 349 342 331 198 175 182 185 180
223 216 212 217 250 262 262 262 263 272 276 276 275 272 292 300 318 301 297 295 283 285 271 269 302 305 309 310 320 325 326 325 327 333 333 346 347 339 336 227 186 187 179
236 231 222 217 228 256 261 261 266 269 274 278 282 280 297 304 284 285 277 265 271 265 259 235 267 287 292 297 303 306 307 315 319 332 338 336 342 339 335 333 204 176 174
234 239 241 226 230 251 264 258 259 259 265 270 276 284 287 279 260 262 271 274 258 268 270 264 238 271 264 278 266 275 286 292 303 314 319 328 326 340 335 330 332 208 176
224 225 229 228 223 252 260 267 266 265 266 271 275 272 272 269 267 264 263 266 264 260 257 263 261 256 249 256 271 270 271 270 275 287 311 315 318 330 325 322 322 334 208
229 238 223 216 236 251 263 261 263 263 262 262 268 268 269 268 269 267 262 249 256 259 262 251 252 262 260 245 256 263 265 277 281 281 281 277 287 301 301 304 308 314 324
236 232 231 207 247 246 250 258 262 261 260 262 263 263 264 268 269 270 266 254 250 252 257 248 253 255 256 249 242 251 260 264 258 253 240 247 265 275 287 292 303 308 314